sat.trackr.live / text

‹ back to catalog

QIANFAN-143

NORAD 69089 · 2026-104S

PAYLOAD ACTIVE UNKNOWN

§ Identity

Operator
Country
PRC
Launch date
2026-05-12
Launch site
TAISC
Launch vehicle
Mass (kg)
RCS (m²)

External: N2YO · Heavens-Above · Gunter

§ Orbital elements

Epoch: 2026-09-20T03:29:32.744832Z

Period
106.59 min
Inclination
88.9907°
Eccentricity
0.0002014
Mean motion
13.51027377 rev/d
Perigee alt
1,067.0 km
Apogee alt
1,070.0 km
Semi-major
7,446.6 km
B*
8.8766e-5
RAAN
331.7571°
Arg perigee
106.3664°
Mean anomaly
253.7708°
Rev number
1,799

§ Raw data

QIANFAN-1431 69089U 26104S   26263.14551788  .00000069  00000+0  88766-4 0  99962 69089  88.9907 331.7571 0002014 106.3664 253.7708 13.51027377 17999

JSON: /api/v1/satellites/69089 · /tle

For live sub-satellite position, see the globe view (requires WebGL).

§ Visibility from observer

Set your observer location to see the next 7 days of passes ≥ 10°. The values pass through the URL so the page stays shareable.

No JS? Fill the form by hand. The geolocation button needs JavaScript.